This is the latest recevied weather packets stored in our database for station/object EA7BW-10. If no packets are shown the sender has not sent any weather packets the latest 10 day(s).
| Time | Temp. | Humidity | Pressure | Rain* | Wind** | Luminosity | Snow |
|---|---|---|---|---|---|---|---|
| 1778137282 | 22.22° C | 39% | 1005.2 hPa | - | - | - | - |
| 1778136082 | 27.22° C | 33% | 1004.9 hPa | - | - | - | - |
| 1778134882 | 21.11° C | 40% | 1005.1 hPa | - | - | - | - |
| 1778133682 | 20.56° C | 40% | 1005 hPa | - | - | - | - |
| 1778132482 | 16.67° C | 44% | 1004.7 hPa | - | - | - | - |
| 1778131282 | 16.11° C | 44% | 1004.6 hPa | - | - | - | - |
| 1778130081 | 16.11° C | 43% | 1004.5 hPa | - | - | - | - |
| 1778128881 | 16.11° C | 43% | 1004.2 hPa | - | - | - | - |
| 1778127681 | 16.67° C | 43% | 1003.8 hPa | - | - | - | - |
| 1778126482 | 17.22° C | 42% | 1004.1 hPa | - | - | - | - |
| 1778125281 | 17.22° C | 41% | 1004.1 hPa | - | - | - | - |
| 1778124081 | 17.22° C | 41% | 1003.9 hPa | - | - | - | - |
| 1778122881 | 17.22° C | 41% | 1003.8 hPa | - | - | - | - |
| 1778121681 | 17.78° C | 40% | 1003.9 hPa | - | - | - | - |
| 1778120481 | 18.89° C | 39% | 1003.8 hPa | - | - | - | - |
| 1778119280 | 19.44° C | 38% | 1004 hPa | - | - | - | - |
| 1778118080 | 19.44° C | 38% | 1004.1 hPa | - | - | - | - |
| 1778116880 | 20° C | 37% | 1004.2 hPa | - | - | - | - |
| 1778115680 | 20° C | 36% | 1004.2 hPa | - | - | - | - |
| 1778114482 | 20° C | 35% | 1004.3 hPa | - | - | - | - |
| 1778113280 | 20° C | 35% | 1004.4 hPa | - | - | - | - |
| 1778112078 | 20.56° C | 34% | 1004.5 hPa | - | - | - | - |
| 1778110877 | 20.56° C | 33% | 1004.5 hPa | - | - | - | - |
| 1778109677 | 20.56° C | 33% | 1004.2 hPa | - | - | - | - |
| 1778108477 | 21.11° C | 32% | 1004.3 hPa | - | - | - | - |
* Rain since midnight (hover to see other rain measurements)
** Current wind speed in m/s (hover to see current wind gust speed)